Weather History for Spokane Fairchild, WA

Change the Weather History Date:

Friday, February 22, 2013

  Actual Average Record
Temperature  
Mean Temperature 32 °F -  
Max Temperature 37 °F 39 °F 50 °F (2002)
Min Temperature 28 °F 24 °F 21 °F (2005)
Degree Days  
Heating Degree Days 32    
Moisture  
Dew Point 32 °F    
Average Humidity 97    
Maximum Humidity 100    
Minimum Humidity 74    
Precipitation  
Precipitation 0.09 in - - ()
Snow  
Snow 0.00 in - - ()
Snow Depth 0.00 in    
Sea Level Pressure  
Sea Level Pressure 29.81 in    
Wind  
Wind Speed 14 mph (South)    
Max Wind Speed 26 mph    
Max Gust Speed 38 mph    
Visibility 7 miles    
Events Rain , Snow    
Averages and records for this station are not official NWS values.
T = Trace of Precipitation, MM = Missing Value Source: NWS Daily Summary

Daily Weather History Graph

Daily Weather History Graph

Search for Another Location

Airport:

Trip Planner

Search our weather history database for the weather conditions in past years. The results will help you decide how hot, cold, wet, or windy it might be!

Date:

Astronomy

Feb. 22, 2013 Rise Set
Actual Time 6:43 AM PST 5:25 PM PST
Civil Twilight 6:12 AM PST 5:56 PM PST
Nautical Twilight 5:36 AM PST 6:32 PM PST
Astronomical Twilight 5:00 AM PST 7:08 PM PST
Moon 2:33 PM PST (2/22) 4:40 AM PST (2/22)
Length of Visible Light 11h 44m
Length of Day
10h 41m
Waxing Gibbous, 91% of the Moon is Illuminated
Feb 22
Waxing Gibbous
Feb 25
Full
Mar 4
Last Quarter
Mar 11
New
Mar 19
First Quarter

Hourly Weather History & Observations

Time (PST) Temp. Windchill Dew Point Humidity Pressure Visibility Wind Dir Wind Speed Gust Speed Precip Events Conditions
12:00 AM 32.0 °F 23.0 °F 28.4 °F 87% 29.92 in 10.0 mi South 11.5 mph - N/A   Clear
12:58 AM 29.1 °F 20.0 °F 27.9 °F 95% 30.01 in 10.0 mi South 10.4 mph - 0.00 in   Clear
1:11 AM 28.4 °F 19.1 °F 28.4 °F 100% 29.93 in 10.0 mi South 10.4 mph - N/A   Clear
1:12 AM 28.4 °F 19.1 °F 28.4 °F 100% 29.93 in 10.0 mi SSW 10.4 mph - N/A   Clear
1:58 AM 29.1 °F 22.1 °F 28.0 °F 96% 30.00 in 10.0 mi South 6.9 mph - 0.00 in   Clear
2:58 AM 29.3 °F 20.2 °F 28.2 °F 96% 29.99 in 10.0 mi South 10.4 mph - N/A   Clear
3:34 AM 30.2 °F 19.8 °F 28.4 °F 93% 29.92 in 10.0 mi South 13.8 mph - N/A   Partly Cloudy
3:49 AM 30.2 °F 20.8 °F 28.4 °F 93% 29.92 in 10.0 mi SSW 11.5 mph - N/A   Mostly Cloudy
3:58 AM 30.2 °F 20.2 °F 29.3 °F 96% 30.00 in 10.0 mi SSW 12.7 mph - N/A   Mostly Cloudy
4:29 AM 32.0 °F 23.6 °F 30.2 °F 93% 29.92 in 10.0 mi SSW 10.4 mph - N/A   Overcast
4:44 AM 32.0 °F 22.1 °F 30.2 °F 93% 29.92 in 10.0 mi South 13.8 mph - N/A   Overcast
4:53 AM 32.0 °F 23.0 °F 30.2 °F 93% 29.92 in 10.0 mi South 11.5 mph - N/A   Overcast
4:58 AM 30.6 °F 21.2 °F 29.8 °F 97% 29.99 in 10.0 mi South 11.5 mph - 0.00 in   Overcast
4:59 AM 32.0 °F 23.6 °F 30.2 °F 93% 29.92 in 10.0 mi South 10.4 mph - N/A   Overcast
5:32 AM 32.0 °F 22.5 °F 30.2 °F 93% 29.93 in 10.0 mi SSW 12.7 mph 20.7 mph N/A   Overcast
5:35 AM 32.0 °F 22.5 °F 30.2 °F 93% 29.93 in 10.0 mi SSW 12.7 mph 20.7 mph N/A   Overcast
5:58 AM 30.7 °F 21.4 °F 30.2 °F 98% 30.01 in 3.0 mi SSW 11.5 mph - 0.00 in Snow Light Snow
6:03 AM 32.0 °F 23.6 °F 30.2 °F 93% 29.93 in 2.5 mi SSW 10.4 mph - N/A Snow Light Snow
6:13 AM 32.0 °F 23.0 °F 30.2 °F 93% 29.92 in 3.0 mi South 11.5 mph - N/A Snow Light Snow
6:53 AM 32.0 °F 24.2 °F 30.2 °F 93% 29.91 in 5.0 mi South 9.2 mph - N/A Snow Light Snow
6:58 AM 30.6 °F 22.4 °F 30.0 °F 98% 29.99 in 5.0 mi South 9.2 mph - 0.00 in Snow Light Snow
7:38 AM 32.0 °F 24.8 °F 32.0 °F 100% 29.91 in 4.0 mi South 8.1 mph - N/A Snow Light Snow
7:53 AM 32.0 °F 24.8 °F 32.0 °F 100% 29.90 in 6.0 mi South 8.1 mph - N/A Snow Light Snow
7:58 AM 31.1 °F 23.7 °F 30.9 °F 99% 29.97 in 6.0 mi South 8.1 mph - 0.01 in Snow Light Snow
8:03 AM 32.0 °F 24.2 °F 32.0 °F 100% 29.90 in 6.0 mi South 9.2 mph - N/A Snow Light Snow
8:18 AM 32.0 °F 23.6 °F 32.0 °F 100% 29.90 in 7.0 mi South 10.4 mph - N/A Snow Light Snow
8:58 AM 32.0 °F 22.5 °F 32.0 °F 100% 29.96 in 10.0 mi South 12.7 mph 20.7 mph 0.01 in Rain Light Rain
9:03 AM 32.0 °F 23.6 °F 32.0 °F 100% 29.89 in 10.0 mi South 10.4 mph 20.7 mph N/A Rain Light Rain
9:12 AM 32.0 °F 21.6 °F 32.0 °F 100% 29.88 in 10.0 mi South 15.0 mph - N/A   Overcast
9:23 AM 32.0 °F 21.6 °F 32.0 °F 100% 29.87 in 10.0 mi South 15.0 mph 21.9 mph N/A Rain Light Rain
9:32 AM 32.0 °F 21.2 °F 32.0 °F 100% 29.86 in 10.0 mi South 16.1 mph - N/A   Overcast
9:37 AM 32.0 °F 20.8 °F 32.0 °F 100% 29.86 in 10.0 mi South 17.3 mph - N/A   Overcast
9:52 AM 32.0 °F 20.5 °F 32.0 °F 100% 29.87 in 10.0 mi South 18.4 mph 24.2 mph N/A   Overcast
9:56 AM 32.0 °F 20.8 °F 32.0 °F 100% 29.86 in 10.0 mi South 17.3 mph 24.2 mph N/A Snow Light Snow
9:58 AM 32.0 °F 20.8 °F 32.0 °F 100% 29.93 in 10.0 mi South 17.3 mph 24.2 mph 0.00 in Snow Light Snow
10:28 AM 32.0 °F 20.5 °F 32.0 °F 100% 29.84 in 10.0 mi South 18.4 mph 26.5 mph N/A Snow Light Snow
10:58 AM 33.3 °F 22.5 °F 31.6 °F 94% 29.90 in 5.0 mi South 17.3 mph - 0.00 in Snow Light Snow
11:13 AM 32.0 °F 21.6 °F 32.0 °F 100% 29.82 in 9.0 mi South 15.0 mph - N/A Rain Light Rain
11:23 AM 32.0 °F 21.2 °F 32.0 °F 100% 29.82 in 10.0 mi South 16.1 mph - N/A Rain Light Rain
11:43 AM 32.0 °F 20.8 °F 32.0 °F 100% 29.80 in 10.0 mi South 17.3 mph 23.0 mph N/A Rain Light Rain
11:58 AM 33.4 °F 23.1 °F 32.2 °F 95% 29.86 in 10.0 mi South 16.1 mph 23.0 mph 0.00 in Snow Light Snow
12:08 PM 32.0 °F 20.8 °F 32.0 °F 100% 29.78 in 10.0 mi South 17.3 mph 26.5 mph N/A Snow Light Snow
12:33 PM 32.0 °F 21.6 °F 32.0 °F 100% 29.77 in 3.0 mi South 15.0 mph - N/A Snow Light Snow
12:38 PM 32.0 °F 21.6 °F 32.0 °F 100% 29.77 in 2.5 mi South 15.0 mph - N/A Snow Light Snow
12:48 PM 32.0 °F 21.6 °F 32.0 °F 100% 29.76 in 3.0 mi South 15.0 mph 21.9 mph N/A Snow Light Snow
12:58 PM 32.0 °F 22.1 °F 32.0 °F 100% 29.83 in 3.0 mi South 13.8 mph 21.9 mph 0.00 in Snow Light Snow
1:03 PM 32.0 °F 21.2 °F 32.0 °F 100% 29.75 in 2.5 mi South 16.1 mph - N/A Snow Light Snow
1:08 PM 32.0 °F 21.2 °F 32.0 °F 100% 29.75 in 1.8 mi South 16.1 mph 20.7 mph N/A Snow Light Snow
1:13 PM 32.0 °F 21.6 °F 32.0 °F 100% 29.74 in 1.8 mi South 15.0 mph - N/A Snow Light Snow
1:18 PM 32.0 °F 21.6 °F 32.0 °F 100% 29.74 in 1.5 mi South 15.0 mph - N/A Snow Light Snow
1:23 PM 32.0 °F 22.1 °F 32.0 °F 100% 29.74 in 1.5 mi South 13.8 mph - N/A Snow Light Snow
1:28 PM 32.0 °F 22.5 °F 32.0 °F 100% 29.73 in 1.8 mi South 12.7 mph - N/A Snow Light Snow
1:38 PM 32.0 °F 22.5 °F 32.0 °F 100% 29.73 in 1.5 mi South 12.7 mph - N/A Snow Light Snow
1:43 PM 32.0 °F 22.1 °F 32.0 °F 100% 29.72 in 1.8 mi South 13.8 mph - N/A Snow Light Snow
1:48 PM 32.0 °F 22.1 °F 32.0 °F 100% 29.72 in 2.0 mi South 13.8 mph - N/A Snow Light Snow
1:58 PM 32.0 °F 21.6 °F 32.0 °F 100% 29.78 in 1.8 mi South 15.0 mph - 0.03 in Snow Light Snow
2:03 PM 32.0 °F 21.2 °F 32.0 °F 100% 29.71 in 1.2 mi South 16.1 mph - N/A Snow Light Snow
2:13 PM 32.0 °F 21.2 °F 32.0 °F 100% 29.70 in 1.8 mi South 16.1 mph 23.0 mph N/A Snow Light Snow
2:18 PM 32.0 °F 20.8 °F 32.0 °F 100% 29.70 in 2.0 mi South 17.3 mph 23.0 mph N/A Snow Light Snow
2:23 PM 32.0 °F 20.8 °F 32.0 °F 100% 29.70 in 1.8 mi South 17.3 mph 25.3 mph N/A Snow Light Snow
2:33 PM 32.0 °F 19.8 °F 32.0 °F 100% 29.70 in 2.0 mi South 20.7 mph 24.2 mph N/A Snow Light Snow
2:38 PM 32.0 °F 20.5 °F 32.0 °F 100% 29.69 in 1.2 mi South 18.4 mph 24.2 mph N/A Snow Light Snow
2:43 PM 32.0 °F 19.8 °F 32.0 °F 100% 29.69 in 1.5 mi South 20.7 mph 25.3 mph N/A Snow Light Snow
2:48 PM 32.0 °F 20.5 °F 32.0 °F 100% 29.69 in 2.0 mi South 18.4 mph 25.3 mph N/A Snow Light Snow
2:53 PM 32.0 °F 20.8 °F 32.0 °F 100% 29.70 in 3.0 mi South 17.3 mph 26.5 mph N/A Snow Light Snow
2:58 PM 32.9 °F 22.4 °F 32.4 °F 98% 29.77 in 4.0 mi South 16.1 mph 26.5 mph 0.02 in Snow Light Snow
3:48 PM 32.0 °F 21.2 °F 32.0 °F 100% 29.67 in 3.0 mi South 16.1 mph - N/A Snow Light Snow
3:53 PM 32.0 °F 21.6 °F 32.0 °F 100% 29.66 in 4.0 mi South 15.0 mph - N/A Snow Light Snow
3:58 PM 33.1 °F 23.4 °F 32.9 °F 99% 29.73 in 5.0 mi South 13.8 mph - 0.00 in Snow Light Snow
4:33 PM 33.8 °F 22.5 °F 33.8 °F 100% 29.65 in 10.0 mi South 19.6 mph 26.5 mph N/A Snow Light Snow
4:48 PM 35.6 °F 24.8 °F 33.8 °F 93% 29.65 in 10.0 mi South 19.6 mph 28.8 mph N/A Snow Light Snow
4:58 PM 35.6 °F 23.7 °F 34.7 °F 97% 29.70 in 10.0 mi SSW 24.2 mph 32.2 mph 0.01 in Snow Light Snow
5:18 PM 35.6 °F 24.5 °F 35.6 °F 100% 29.64 in 10.0 mi SSW 20.7 mph 26.5 mph N/A Snow Light Snow
5:58 PM 36.5 °F 26.0 °F 35.1 °F 95% 29.69 in 10.0 mi SSW 19.6 mph 28.8 mph 0.00 in Snow Light Snow
6:08 PM 37.4 °F 27.5 °F 35.6 °F 93% 29.63 in 10.0 mi SSW 18.4 mph 28.8 mph N/A Snow Light Snow
6:58 PM 36.5 °F 24.4 °F 35.1 °F 95% 29.67 in 10.0 mi SSW 26.5 mph 34.5 mph 0.00 in Snow Light Snow
7:18 PM 37.4 °F 25.6 °F 33.8 °F 87% 29.61 in 10.0 mi SSW 26.5 mph 35.7 mph N/A Snow Light Snow
7:48 PM 35.6 °F 23.7 °F 33.8 °F 93% 29.59 in 10.0 mi SSW 24.2 mph 32.2 mph N/A Snow Light Snow
7:58 PM 36.3 °F 24.7 °F 34.3 °F 93% 29.65 in 10.0 mi SSW 24.2 mph 36.8 mph 0.00 in Snow Light Snow
8:08 PM 35.6 °F 24.0 °F 33.8 °F 93% 29.58 in 10.0 mi SSW 23.0 mph 31.1 mph N/A Snow Light Snow
8:58 PM 35.8 °F 24.2 °F 33.6 °F 92% 29.63 in 10.0 mi SSW 23.0 mph 38.0 mph 0.00 in Snow Light Snow
9:58 PM 34.7 °F 22.8 °F 32.0 °F 90% 29.67 in 10.0 mi SW 23.0 mph 31.1 mph 0.01 in Snow Light Snow
10:58 PM 34.0 °F 21.5 °F 27.3 °F 77% 29.70 in 10.0 mi WSW 24.2 mph 32.2 mph 0.00 in Snow Light Snow
11:58 PM 32.5 °F 20.2 °F 25.2 °F 74% 29.72 in 10.0 mi WSW 21.9 mph 31.1 mph 0.00 in Snow Light Snow